Wind_Speed
24 24 23 22 20 20 18 17 16 17 18 14 10 8 7 7 7 8 9 10 10 10 9 9 8 8 7 6 5 3 2 3 4 5 6 7 7 7 6 5 5 5 6
27 25 25 23 22 21 20 19 18 19 20 17 13 10 10 9 8 8 8 8 9 8 7 7 7 6 5 4 2 1 2 3 4 6 7 7 8 8 7 7 6 6 7
31 28 27 26 24 22 23 22 21 22 22 20 16 13 12 11 10 8 7 7 7 7 6 6 5 5 4 3 3 2 2 2 3 4 5 6 6 7 7 7 7 7 7
33 33 27 29 27 25 24 25 23 24 24 22 18 15 15 13 11 9 7 7 6 5 5 5 4 4 5 4 3 3 1 1 3 4 5 5 6 6 5 4 4 5 5
36 35 31 30 29 28 26 27 25 26 27 24 21 19 18 16 14 10 8 7 6 6 5 4 5 5 4 3 2 1 2 3 4 3 3 3 3 4 4 4 4 4 4
41 35 35 33 31 31 28 28 26 27 29 27 24 22 21 19 16 13 10 9 9 8 7 7 6 6 5 5 5 5 5 5 4 4 4 5 5 5 5 6 6 7 8
44 41 38 35 35 34 31 30 28 28 31 29 26 25 24 21 18 15 12 12 11 10 9 9 7 7 7 7 7 8 8 7 7 7 6 7 8 8 8 8 8 8 9
49 44 41 38 36 35 34 32 30 29 32 31 29 28 27 24 21 18 16 14 13 12 10 8 6 6 5 7 8 9 10 10 10 10 9 10 11 10 10 11 11 11 12
53 50 45 42 39 36 36 35 32 31 33 33 31 31 30 27 23 20 18 17 16 14 11 9 6 4 5 5 6 7 8 9 9 9 10 12 12 13 13 13 14 14 14
55 52 52 47 43 38 36 37 36 33 34 34 34 33 32 29 25 23 21 20 18 15 12 9 6 4 4 4 5 6 7 7 8 9 10 11 11 11 13 14 15 15 15
52 55 57 51 48 47 38 39 38 37 35 36 36 35 34 32 28 26 24 23 21 17 15 11 8 6 6 5 7 8 8 9 10 11 12 13 12 11 13 14 14 14 15
48 58 51 47 50 49 47 42 40 39 38 38 38 37 37 35 31 29 26 25 24 21 17 14 11 10 9 8 9 10 9 10 11 13 14 14 14 13 13 12 13 13 14
60 74 65 53 52 53 50 47 44 43 42 38 41 40 39 38 34 31 29 28 27 24 21 17 14 13 11 10 11 12 13 12 13 14 14 15 16 15 16 16 16 17 17
50 58 71 58 59 56 53 52 48 45 44 42 43 42 41 40 39 35 32 32 30 28 25 21 18 16 13 11 11 13 13 13 13 15 17 18 18 18 19 19 20 20 20
50 67 59 63 60 59 56 54 51 47 46 46 45 43 44 44 41 38 36 35 33 32 29 25 23 21 18 16 14 15 16 15 16 16 18 18 18 17 18 19 21 21 22
50 78 68 57 60 55 60 57 54 51 48 47 47 47 47 46 45 43 40 38 36 34 32 30 27 24 23 20 17 18 17 17 19 20 19 20 20 22 22 22 22 23 23
61 57 68 71 66 66 63 59 56 53 50 49 50 49 49 48 47 46 44 42 39 37 35 34 32 29 27 26 22 21 22 22 23 23 24 25 28 25 27 27 27 28 28
73 54 42 67 67 58 75 61 58 55 54 52 50 51 51 50 49 49 48 45 42 41 39 37 36 33 31 29 26 26 26 26 27 28 27 28 29 31 30 31 32 33 33
86 73 53 47 78 58 56 62 62 59 56 53 52 52 52 52 50 49 49 48 46 44 43 41 40 38 36 33 31 29 30 30 31 31 31 32 32 35 35 35 34 34 37
68 89 72 51 42 43 53 59 64 63 61 56 53 52 52 52 51 50 49 49 48 47 46 45 43 42 40 37 35 34 33 34 34 33 35 38 37 39 38 38 37 38 38
63 68 76 78 53 35 58 47 67 60 63 57 53 52 51 51 51 50 49 49 48 48 48 46 46 45 43 40 40 38 37 36 37 38 40 42 42 41 42 42 42 41 41
64 66 62 65 64 51 40 46 59 66 63 61 55 53 50 50 51 50 50 49 48 48 48 48 47 46 46 48 47 44 40 40 41 43 47 50 48 46 44 43 41 41 43
51 61 62 56 67 50 28 35 48 56 66 61 57 52 50 50 51 50 51 51 50 50 49 50 50 49 50 53 51 46 46 43 47 49 54 54 51 50 49 47 45 46 47
43 54 61 59 48 68 37 23 43 52 60 62 54 51 50 52 51 51 51 52 52 52 51 54 53 53 53 52 52 53 51 53 54 55 59 59 47 44 46 49 46 48 50
33 45 49 42 43 48 60 30 29 25 45 49 57 55 53 53 52 52 51 52 52 51 51 51 53 55 53 51 56 58 56 56 59 59 57 57 49 49 52 51 49 50 48
25 40 42 37 40 45 49 46 38 29 24 20 55 59 57 57 54 54 54 53 53 52 52 53 55 54 51 58 61 57 59 55 39 58 64 42 44 51 51 45 47 45 43
Wind_Direction
231 226 226 219 216 208 203 196 200 196 199 198 190 171 162 151 137 123 120 124 127 126 126 131 137 148 156 159 158 146 107 85 74 55 43 35 29 28 24 23 20 18 14
231 229 226 222 221 219 211 203 200 202 198 200 196 182 172 162 152 139 134 136 135 133 136 140 142 144 148 147 139 92 67 61 46 29 24 17 9 5 358 351 346 348 349
229 228 225 223 220 222 220 210 203 203 201 200 198 189 178 170 163 154 150 151 151 149 149 148 152 150 151 155 147 128 93 58 35 14 4 355 349 349 347 343 338 337 344
232 228 226 224 219 220 221 215 210 205 202 200 199 192 182 177 174 167 162 164 166 165 159 159 160 156 155 157 160 147 136 328 343 352 352 348 346 347 350 343 345 349 355
225 228 225 224 221 218 219 218 214 208 203 201 199 193 186 182 181 181 180 187 199 195 188 189 181 176 179 186 206 234 286 317 327 331 343 336 351 347 346 339 349 343 344
223 222 222 225 220 218 217 217 216 212 206 202 199 194 188 186 185 188 198 205 207 208 206 215 217 224 234 238 251 265 269 275 275 284 294 297 300 307 309 312 315 314 311
221 217 218 218 220 217 213 216 214 211 209 204 200 196 191 191 190 191 200 203 209 212 205 209 213 233 243 253 262 268 268 270 277 284 287 293 297 295 295 296 297 297 297
220 215 213 215 218 216 213 212 213 212 211 206 202 197 195 193 196 194 197 203 206 204 204 210 218 246 260 275 272 268 271 283 287 288 288 282 282 283 286 288 291 292 293
219 215 211 213 212 216 214 211 210 212 213 210 205 201 198 197 199 195 199 203 206 202 203 207 219 248 280 282 289 284 289 293 289 287 294 290 286 286 284 285 282 285 291
216 216 214 211 210 214 216 213 210 211 213 212 210 204 202 201 200 198 200 204 209 203 201 202 205 243 267 284 294 301 299 303 308 307 309 308 297 293 291 289 289 290 295
209 216 217 213 212 213 217 216 213 212 212 213 214 208 205 204 203 203 203 206 209 204 204 205 210 231 245 259 281 285 295 309 316 313 310 306 306 305 300 303 305 304 309
197 218 222 204 213 211 212 218 215 213 211 212 215 213 209 207 205 207 206 209 210 207 206 208 220 231 236 254 266 279 296 307 321 323 306 298 301 303 304 306 307 309 312
212 212 211 211 210 209 210 216 215 214 213 212 215 214 214 210 209 209 209 209 211 210 210 216 225 230 246 254 266 274 285 293 313 321 315 301 296 299 299 299 298 300 306
216 205 209 210 209 210 211 212 213 214 214 213 215 214 216 214 212 211 212 212 211 212 213 216 224 230 247 255 262 272 278 296 309 322 323 315 306 299 296 297 297 297 299
211 206 203 205 208 210 212 211 212 213 213 214 215 215 217 216 215 214 215 215 215 216 218 221 226 233 242 256 262 263 272 281 297 314 319 312 303 300 298 299 298 298 297
200 205 208 198 204 212 213 212 211 212 213 214 214 218 219 219 217 216 217 218 219 221 222 225 227 232 241 251 258 263 264 274 289 300 310 311 306 302 299 299 299 298 299
200 187 210 200 204 208 214 213 213 212 213 215 216 217 220 220 220 219 219 220 222 224 226 229 232 234 242 250 256 258 266 273 283 290 296 302 308 302 297 295 295 295 296
204 188 168 194 205 210 212 210 212 214 213 214 217 218 220 222 222 221 221 222 224 227 229 233 236 237 243 247 253 258 264 271 280 284 290 299 303 302 297 292 294 297 297
217 202 199 199 204 209 191 209 208 211 214 215 217 219 221 222 223 224 224 225 226 228 230 233 236 239 242 246 252 256 261 267 273 279 286 290 296 296 295 293 293 298 299
225 223 218 210 203 199 209 201 205 211 214 216 218 219 220 223 224 225 227 228 229 230 231 233 236 239 242 247 255 259 260 264 269 276 282 284 288 289 291 291 292 295 299
223 225 230 229 219 220 199 217 212 206 216 215 217 221 222 224 225 226 228 231 232 232 234 236 238 240 242 246 249 253 258 263 269 272 276 279 282 282 285 285 289 290 293
226 229 235 238 231 220 221 213 215 216 214 216 216 221 223 225 227 227 229 232 233 235 236 237 240 242 245 247 252 252 253 259 264 268 274 276 276 276 276 279 282 288 294
235 230 232 231 231 220 213 218 212 217 224 217 216 221 224 227 228 228 230 232 233 234 236 238 241 243 246 251 257 263 261 261 264 267 274 273 276 276 278 281 280 285 287
245 234 232 238 246 230 229 204 219 208 214 212 211 219 223 227 229 230 232 233 235 236 237 239 241 244 247 251 255 261 260 263 263 269 272 273 278 276 276 277 279 282 285
251 243 241 249 247 248 238 219 187 182 199 213 218 215 222 230 231 232 233 235 236 239 241 243 246 249 251 253 259 263 267 268 270 271 281 273 274 276 277 281 282 281 285
255 247 243 245 244 249 252 248 248 225 203 214 220 224 223 225 231 234 234 235 238 239 242 244 245 246 249 254 258 264 268 273 298 278 275 278 277 284 283 280 280 282 283
Height
5848 5851 5853 5855 5857 5858 5859 5861 5863 5865 5867 5869 5870 5870 5871 5872 5873 5874 5875 5876 5876 5877 5878 5879 5880 5881 5882 5883 5884 5884 5885 5885 5885 5885 5884 5884 5884 5884 5884 5883 5883 5883 5883
5843 5846 5848 5851 5853 5855 5856 5857 5859 5862 5864 5867 5868 5869 5871 5872 5873 5874 5875 5876 5876 5877 5878 5879 5880 5881 5882 5882 5883 5883 5884 5884 5884 5884 5884 5884 5884 5884 5883 5883 5883 5882 5882
5837 5840 5843 5846 5849 5851 5853 5855 5856 5859 5861 5864 5866 5868 5869 5871 5872 5873 5875 5875 5876 5877 5878 5879 5879 5880 5881 5881 5882 5882 5883 5884 5884 5884 5884 5884 5884 5884 5883 5883 5883 5882 5881
5832 5835 5838 5841 5843 5847 5849 5851 5853 5856 5859 5861 5863 5865 5867 5869 5871 5872 5874 5875 5876 5876 5877 5878 5879 5880 5880 5881 5882 5882 5882 5883 5883 5883 5883 5883 5883 5882 5882 5882 5881 5881 5880
5824 5828 5832 5835 5838 5841 5844 5848 5850 5852 5855 5858 5861 5863 5864 5867 5869 5871 5873 5874 5875 5876 5877 5878 5878 5879 5880 5880 5880 5881 5881 5881 5881 5882 5882 5882 5881 5881 5881 5881 5880 5880 5880
5817 5820 5825 5829 5832 5836 5839 5843 5846 5849 5852 5855 5857 5860 5862 5864 5867 5870 5871 5872 5873 5875 5876 5877 5877 5878 5879 5879 5880 5880 5880 5880 5881 5881 5881 5880 5880 5880 5880 5880 5879 5879 5878
5808 5812 5817 5822 5826 5830 5833 5837 5841 5844 5848 5851 5854 5857 5859 5862 5864 5867 5869 5870 5871 5873 5874 5875 5876 5876 5877 5878 5878 5878 5879 5878 5879 5879 5879 5878 5878 5878 5878 5878 5877 5877 5876
5799 5804 5809 5814 5820 5823 5827 5831 5836 5839 5844 5847 5850 5853 5856 5858 5861 5864 5866 5867 5869 5871 5872 5873 5874 5875 5876 5876 5876 5876 5877 5877 5876 5876 5877 5877 5876 5876 5876 5875 5875 5874 5873
5788 5795 5799 5806 5812 5817 5822 5826 5830 5834 5839 5843 5846 5850 5852 5855 5858 5860 5863 5865 5866 5868 5870 5871 5872 5873 5874 5874 5875 5875 5875 5875 5875 5875 5875 5874 5874 5874 5874 5873 5872 5871 5871
5777 5786 5791 5797 5804 5810 5815 5820 5824 5828 5833 5838 5842 5845 5848 5851 5854 5856 5859 5861 5863 5865 5867 5868 5870 5871 5872 5873 5873 5874 5874 5874 5874 5874 5873 5872 5871 5871 5870 5870 5869 5869 5868
5769 5776 5783 5787 5795 5802 5807 5813 5817 5822 5827 5832 5837 5840 5844 5847 5850 5853 5855 5857 5860 5862 5864 5866 5867 5868 5869 5870 5872 5872 5872 5873 5872 5871 5871 5870 5870 5869 5868 5868 5867 5866 5865
5761 5768 5773 5779 5786 5793 5800 5805 5811 5816 5820 5825 5831 5836 5839 5842 5845 5848 5851 5853 5856 5858 5861 5863 5864 5866 5867 5868 5869 5869 5870 5870 5870 5869 5868 5867 5867 5866 5866 5865 5864 5863 5862
5739 5744 5759 5767 5777 5784 5790 5797 5802 5807 5813 5818 5824 5829 5833 5837 5840 5844 5847 5849 5851 5854 5857 5859 5860 5862 5864 5864 5866 5867 5867 5867 5867 5866 5865 5865 5864 5864 5863 5862 5861 5860 5859
5709 5728 5741 5753 5764 5774 5781 5787 5792 5799 5805 5810 5816 5821 5826 5831 5834 5838 5841 5844 5846 5850 5852 5855 5856 5859 5860 5861 5862 5863 5864 5864 5864 5863 5862 5861 5860 5860 5859 5859 5858 5856 5855
5702 5710 5722 5740 5754 5764 5772 5777 5784 5791 5796 5802 5808 5814 5819 5824 5829 5833 5836 5839 5842 5845 5848 5850 5852 5854 5856 5857 5858 5859 5860 5860 5860 5859 5858 5858 5857 5856 5855 5854 5853 5852 5850
5694 5704 5717 5730 5745 5753 5761 5766 5773 5780 5787 5794 5800 5806 5811 5817 5822 5826 5830 5833 5836 5840 5843 5845 5847 5849 5851 5853 5854 5855 5855 5855 5855 5855 5854 5854 5853 5852 5851 5849 5848 5847 5845
5686 5698 5705 5722 5728 5723 5749 5756 5764 5770 5778 5785 5791 5797 5803 5809 5814 5819 5823 5827 5831 5834 5837 5840 5842 5844 5846 5847 5848 5849 5850 5850 5850 5850 5850 5849 5849 5848 5846 5844 5842 5841 5840
5674 5684 5690 5710 5715 5714 5728 5742 5753 5760 5768 5774 5782 5788 5794 5800 5806 5811 5816 5820 5824 5828 5831 5834 5836 5838 5840 5841 5842 5843 5844 5845 5845 5845 5844 5844 5843 5842 5840 5838 5836 5835 5833
5667 5673 5681 5696 5707 5703 5721 5732 5736 5745 5758 5765 5771 5779 5786 5792 5798 5803 5808 5812 5816 5820 5823 5827 5829 5831 5833 5835 5836 5837 5838 5838 5839 5838 5838 5837 5836 5834 5833 5830 5828 5827 5826
5661 5665 5675 5685 5689 5704 5711 5712 5722 5733 5746 5756 5763 5770 5777 5785 5790 5795 5801 5805 5809 5813 5816 5819 5822 5824 5826 5828 5829 5830 5831 5831 5832 5831 5831 5830 5828 5827 5825 5823 5821 5818 5816
5658 5665 5672 5680 5689 5699 5709 5716 5720 5724 5735 5746 5755 5764 5770 5777 5783 5788 5793 5798 5802 5806 5810 5813 5815 5818 5820 5821 5822 5822 5823 5824 5824 5823 5823 5821 5820 5818 5816 5814 5812 5809 5806
5660 5666 5673 5677 5683 5692 5703 5707 5711 5719 5727 5737 5746 5756 5763 5770 5776 5780 5785 5790 5794 5798 5802 5805 5808 5810 5812 5812 5813 5813 5814 5815 5815 5814 5813 5812 5810 5808 5806 5804 5802 5801 5799
5654 5661 5670 5676 5683 5692 5698 5702 5706 5710 5721 5729 5738 5748 5756 5763 5768 5772 5776 5781 5785 5789 5792 5796 5798 5800 5802 5803 5805 5805 5805 5805 5804 5804 5803 5801 5800 5799 5797 5794 5792 5789 5787
5650 5656 5665 5673 5679 5686 5695 5699 5705 5707 5713 5720 5729 5738 5747 5755 5760 5764 5768 5772 5775 5779 5782 5785 5787 5789 5791 5791 5793 5794 5794 5794 5794 5794 5793 5791 5790 5788 5785 5784 5781 5778 5776
5647 5654 5661 5669 5675 5683 5689 5693 5698 5703 5708 5716 5721 5729 5738 5746 5751 5755 5759 5763 5767 5771 5775 5778 5780 5782 5783 5783 5785 5785 5785 5784 5785 5784 5782 5779 5778 5776 5774 5773 5770 5767 5764
5643 5650 5659 5666 5675 5681 5683 5691 5696 5700 5706 5710 5714 5721 5728 5736 5742 5748 5751 5754 5759 5762 5766 5768 5769 5770 5771 5772 5773 5776 5776 5777 5773 5772 5772 5768 5766 5766 5762 5760 5758 5755 5753